Regional Weather Roundup
Issued by NWS

Home | Current Version | Previous Version | Text Only | Print | Product List | Glossary On
Versions: 1 2 3 4 5 6 7 8 9 10 11 12 13 14 15 16 17 18 19 20 21 22 23 24 25 26 27 28 29 30 31 32 33 34 35 36 37 38 39 40 41 42 43 44 45 46 47 48 49 50
000
ASUS45 KBOI 200910
RWRID
WEATHER ROUNDUP FOR IDAHO
NATIONAL WEATHER SERVICE BOISE ID
300 AM MDT WED AUG 20 2014

NOTE: "FAIR" INDICATES FEW OR NO CLOUDS BELOW 12000 FEET
WITH NO SIGNIFICANT WEATHER AND/OR OBSTRUCTIONS TO VISIBILITY

IDZ012-014-201000-
SOUTHWEST IDAHO


CITY           SKY/WX    TMP DP  RH WIND       PRES   REMARKS
BOISE          PTCLDY    70  44  39 CALM      29.79S
CALDWELL       PTCLDY    68  46  45 NW7       29.79S
MOUNTAIN HOME  PTCLDY    68  48  48 E12       29.80S
$$

IDZ016-017-201000-
SOUTHCENTRAL IDAHO


CITY           SKY/WX    TMP DP  RH WIND       PRES   REMARKS
BURLEY         PTCLDY    58  51  78 CALM      29.87S
JEROME         PTCLDY    61  51  70 NE10      29.87F
TWIN FALLS     PTCLDY    61  49  64 E7        29.87F
$$

IDZ019>023-201000-
SOUTHEAST IDAHO


CITY           SKY/WX    TMP DP  RH WIND       PRES   REMARKS
IDAHO FALLS    PTCLDY    53  51  93 N5        29.92F
POCATELLO      CLEAR     57  56  96 CALM      29.91R
REXBURG        PTCLDY    53  51  93 CALM      29.93F
$$

IDZ006-010-011-018-031-032-201000-
CENTRAL IDAHO MOUNTAINS


CITY           SKY/WX    TMP DP  RH WIND       PRES   REMARKS
MCCALL         PTCLDY    61  43  51 N9        29.89S
HAILEY         PTCLDY    55  50  82 NW5       29.99R
STANLEY          N/A     46  41  82 CALM      30.02S
SALMON         CLOUDY    57  54  88 SE5       29.89S
CHALLIS        MOCLDY    53  50  89 CALM      29.94S
$$

IDZ002-004-006-007-026-201000-
NORTHERN IDAHO


CITY           SKY/WX    TMP DP  RH WIND       PRES   REMARKS
LEWISTON       CLEAR     74  48  39 SW6       29.71R
LOWELL           N/A     61  60  97 CALM      29.80R
COEUR D`ALENE  CLOUDY    63  55  77 NE3       29.73R
MULLAN PASS    PTCLDY    54  44  69 S9        29.91S
$$



USA.gov is the U.S. government's official web portal to all federal, state and local government web resources and services.